^^
Your Local Weather - Clay, NY Station Historical Data
Daily Summary for February 21, 2018 Units:  English    Metric   Both
« Previous Day
Next Day »
Daily Weekly Monthly Yearly Custom
  High: Low: Average:
Temperature: 73.1 °F 33.4 °F 50.9 °F
Dew Point: 55.7 °F 28.2 °F 42.9 °F
Humidity: 90% 52% 75%
Wind Speed: 8.0mph 0.0mph 3.4mph
Wind Gust: 15.0mph - -
Wind- - WSW
Pressure: 30.57 in 30.01 in -
Precipitation: 0.02 in    
Historical Graphs
 
 
Tabular Data for February 21, 2018
Time Temperature Dew Point Pressure Wind Wind Speed Wind Gust Humidity Rainfall Rate (Hourly) solar
00:04 64.4 °F 54.0 °F 30.08 in SW 3.0 mph 3.0 mph 69% 0.00 in 0 W/m2
00:10 64.5 °F 54.1 °F 30.08 in SSW 3.0 mph 3.0 mph 69% 0.00 in 0 W/m2
00:16 64.7 °F 53.9 °F 30.08 in SSW 4.0 mph 7.0 mph 68% 0.00 in 0 W/m2
00:22 64.4 °F 53.6 °F 30.08 in South 4.0 mph 4.0 mph 68% 0.00 in 0 W/m2
00:28 64.2 °F 53.8 °F 30.08 in South 3.0 mph 5.0 mph 69% 0.00 in 0 W/m2
00:34 64.1 °F 53.7 °F 30.08 in SSW 3.0 mph 3.0 mph 69% 0.00 in 0 W/m2
00:40 63.9 °F 53.9 °F 30.09 in South 3.0 mph 3.0 mph 70% 0.00 in 0 W/m2
00:46 63.9 °F 53.9 °F 30.09 in SW 3.0 mph 6.0 mph 70% 0.00 in 0 W/m2
00:52 63.7 °F 53.7 °F 30.09 in SW 3.0 mph 3.0 mph 70% 0.00 in 0 W/m2
00:58 63.8 °F 53.8 °F 30.09 in SSW 3.0 mph 3.0 mph 70% 0.00 in 0 W/m2
01:04 63.7 °F 53.3 °F 30.09 in SSW 3.0 mph 3.0 mph 69% 0.00 in 0 W/m2
01:10 63.5 °F 53.5 °F 30.09 in SSW 2.0 mph 2.0 mph 70% 0.00 in 0 W/m2
01:16 63.1 °F 53.2 °F 30.09 in SSW 1.0 mph 2.0 mph 70% 0.00 in 0 W/m2
01:22 62.8 °F 53.3 °F 30.09 in SSW 1.0 mph 1.0 mph 71% 0.00 in 0 W/m2
01:28 62.8 °F 53.3 °F 30.09 in SSE 1.0 mph 5.0 mph 71% 0.00 in 0 W/m2
01:34 62.7 °F 53.2 °F 30.09 in South 2.0 mph 2.0 mph 71% 0.00 in 0 W/m2
01:40 62.2 °F 52.7 °F 30.09 in SSW 1.0 mph 2.0 mph 71% 0.00 in 0 W/m2
01:46 62.1 °F 53.0 °F 30.09 in South 2.0 mph 4.0 mph 72% 0.00 in 0 W/m2
01:52 62.3 °F 53.2 °F 30.08 in SSW 3.0 mph 3.0 mph 72% 0.00 in 0 W/m2
01:58 62.5 °F 53.0 °F 30.08 in SSW 3.0 mph 3.0 mph 71% 0.00 in 0 W/m2
02:04 63.0 °F 53.4 °F 30.08 in South 3.0 mph 4.0 mph 71% 0.00 in 0 W/m2
02:10 63.4 °F 53.4 °F 30.08 in SSW 4.0 mph 4.0 mph 70% 0.00 in 0 W/m2
02:16 63.5 °F 53.1 °F 30.07 in SSE 4.0 mph 4.0 mph 69% 0.00 in 0 W/m2
02:22 63.4 °F 53.4 °F 30.08 in WSW 3.0 mph 5.0 mph 70% 0.00 in 0 W/m2
02:28 64.0 °F 53.6 °F 30.07 in SW 4.0 mph 5.0 mph 69% 0.00 in 0 W/m2
02:34 64.3 °F 53.5 °F 30.07 in SSW 4.0 mph 4.0 mph 68% 0.00 in 0 W/m2
02:40 64.2 °F 53.4 °F 30.07 in SSW 3.0 mph 4.0 mph 68% 0.00 in 0 W/m2
02:46 64.1 °F 53.3 °F 30.07 in SSW 3.0 mph 5.0 mph 68% 0.00 in 0 W/m2
02:52 63.8 °F 53.4 °F 30.07 in SSW 2.0 mph 3.0 mph 69% 0.00 in 0 W/m2
02:58 63.4 °F 53.0 °F 30.07 in SSW 2.0 mph 3.0 mph 69% 0.00 in 0 W/m2
03:04 63.1 °F 53.2 °F 30.07 in SSE 2.0 mph 2.0 mph 70% 0.00 in 0 W/m2
03:10 63.1 °F 53.2 °F 30.07 in SSE 2.0 mph 4.0 mph 70% 0.00 in 0 W/m2
03:16 63.0 °F 53.1 °F 30.07 in South 2.0 mph 4.0 mph 70% 0.00 in 0 W/m2
03:22 63.1 °F 53.2 °F 30.07 in SSW 3.0 mph 4.0 mph 70% 0.00 in 0 W/m2
03:28 63.5 °F 53.1 °F 30.06 in South 4.0 mph 4.0 mph 69% 0.00 in 0 W/m2
03:34 63.4 °F 52.7 °F 30.06 in South 4.0 mph 4.0 mph 68% 0.00 in 0 W/m2
03:40 63.6 °F 52.8 °F 30.06 in South 3.0 mph 3.0 mph 68% 0.00 in 0 W/m2
03:46 63.3 °F 52.6 °F 30.06 in South 4.0 mph 6.0 mph 68% 0.00 in 0 W/m2
03:52 63.2 °F 52.5 °F 30.05 in South 3.0 mph 4.0 mph 68% 0.00 in 0 W/m2
03:58 63.1 °F 52.8 °F 30.05 in SSW 2.0 mph 5.0 mph 69% 0.00 in 0 W/m2
04:04 63.3 °F 52.6 °F 30.05 in SSE 3.0 mph 3.0 mph 68% 0.00 in 0 W/m2
04:10 63.6 °F 52.8 °F 30.05 in SSE 4.0 mph 5.0 mph 68% 0.00 in 0 W/m2
04:16 63.6 °F 52.8 °F 30.05 in South 4.0 mph 5.0 mph 68% 0.00 in 0 W/m2
04:24 63.1 °F 52.4 °F 30.05 in South 3.0 mph 5.0 mph 68% 0.00 in 0 W/m2
04:30 63.3 °F 52.6 °F 30.05 in South 3.0 mph 4.0 mph 68% 0.00 in 0 W/m2
04:36 63.1 °F 52.4 °F 30.05 in SW 3.0 mph 5.0 mph 68% 0.00 in 0 W/m2
04:42 62.9 °F 52.2 °F 30.05 in SSW 3.0 mph 5.0 mph 68% 0.00 in 0 W/m2
04:48 63.0 °F 52.7 °F 30.05 in SSW 3.0 mph 6.0 mph 69% 0.00 in 0 W/m2
04:54 62.8 °F 52.1 °F 30.05 in South 3.0 mph 3.0 mph 68% 0.00 in 0 W/m2
05:00 62.7 °F 52.4 °F 30.05 in South 3.0 mph 3.0 mph 69% 0.00 in 0 W/m2
05:06 62.8 °F 52.5 °F 30.05 in SSW 3.0 mph 5.0 mph 69% 0.00 in 0 W/m2
05:12 62.7 °F 52.4 °F 30.05 in WSW 3.0 mph 3.0 mph 69% 0.00 in 0 W/m2
05:18 62.5 °F 52.2 °F 30.05 in SSE 2.0 mph 5.0 mph 69% 0.00 in 0 W/m2
05:24 62.9 °F 52.6 °F 30.05 in South 4.0 mph 5.0 mph 69% 0.00 in 0 W/m2
05:30 63.0 °F 52.3 °F 30.05 in South 4.0 mph 4.0 mph 68% 0.00 in 0 W/m2
05:36 62.4 °F 52.1 °F 30.05 in SSE 4.0 mph 9.0 mph 69% 0.00 in 0 W/m2
05:42 62.5 °F 52.2 °F 30.06 in West 5.0 mph 5.0 mph 69% 0.00 in 0 W/m2
05:48 62.2 °F 52.3 °F 30.05 in South 3.0 mph 6.0 mph 70% 0.00 in 0 W/m2
05:54 62.4 °F 52.1 °F 30.05 in SW 4.0 mph 4.0 mph 69% 0.00 in 0 W/m2
06:00 62.1 °F 52.2 °F 30.05 in South 3.0 mph 4.0 mph 70% 0.00 in 0 W/m2
06:06 61.9 °F 52.0 °F 30.05 in South 3.0 mph 4.0 mph 70% 0.00 in 0 W/m2
06:12 61.6 °F 52.1 °F 30.05 in South 3.0 mph 3.0 mph 71% 0.00 in 0 W/m2
06:18 61.7 °F 52.2 °F 30.05 in South 3.0 mph 4.0 mph 71% 0.00 in 0 W/m2
06:24 61.6 °F 52.1 °F 30.05 in South 3.0 mph 4.0 mph 71% 0.00 in 0 W/m2
06:30 61.4 °F 51.9 °F 30.05 in South 3.0 mph 3.0 mph 71% 0.00 in 0 W/m2
06:36 61.5 °F 52.0 °F 30.05 in South 3.0 mph 4.0 mph 71% 0.00 in 0 W/m2
06:42 61.2 °F 51.7 °F 30.04 in South 2.0 mph 3.0 mph 71% 0.00 in 0 W/m2
06:48 61.0 °F 51.9 °F 30.04 in SSE 2.0 mph 3.0 mph 72% 0.00 in 0 W/m2
06:54 61.0 °F 51.9 °F 30.04 in South 3.0 mph 5.0 mph 72% 0.00 in 0 W/m2
07:00 61.4 °F 51.9 °F 30.04 in SSW 2.0 mph 2.0 mph 71% 0.00 in 7 W/m2
07:06 61.6 °F 52.1 °F 30.04 in SSW 2.0 mph 2.0 mph 71% 0.00 in 9 W/m2
07:12 61.6 °F 51.7 °F 30.04 in South 2.0 mph 3.0 mph 70% 0.00 in 11 W/m2
07:18 61.9 °F 52.0 °F 30.04 in South 2.0 mph 4.0 mph 70% 0.00 in 18 W/m2
07:24 62.1 °F 51.8 °F 30.05 in SSW 3.0 mph 3.0 mph 69% 0.00 in 18 W/m2
07:30 62.1 °F 51.8 °F 30.04 in South 2.0 mph 2.0 mph 69% 0.00 in 26 W/m2
07:36 62.3 °F 52.0 °F 30.04 in SSW 2.0 mph 3.0 mph 69% 0.00 in 30 W/m2
07:42 62.9 °F 52.2 °F 30.04 in SW 3.0 mph 3.0 mph 68% 0.00 in 42 W/m2
07:48 63.6 °F 52.4 °F 30.04 in SW 3.0 mph 4.0 mph 67% 0.00 in 39 W/m2
07:54 63.8 °F 52.2 °F 30.03 in South 3.0 mph 5.0 mph 66% 0.00 in 47 W/m2
08:00 64.2 °F 52.6 °F 30.03 in SW 2.0 mph 5.0 mph 66% 0.00 in 76 W/m2
08:06 64.9 °F 52.4 °F 30.03 in SW 3.0 mph 5.0 mph 64% 0.00 in 104 W/m2
08:12 65.6 °F 52.7 °F 30.03 in SW 3.0 mph 5.0 mph 63% 0.00 in 95 W/m2
08:18 66.5 °F 53.1 °F 30.03 in SSE 5.0 mph 5.0 mph 62% 0.00 in 104 W/m2
08:24 66.7 °F 52.8 °F 30.03 in SSW 5.0 mph 5.0 mph 61% 0.00 in 102 W/m2
08:30 66.9 °F 52.6 °F 30.01 in South 6.0 mph 6.0 mph 60% 0.00 in 135 W/m2
08:36 67.2 °F 52.8 °F 30.02 in SW 6.0 mph 11.0 mph 60% 0.00 in 181 W/m2
08:42 67.6 °F 53.2 °F 30.02 in South 6.0 mph 8.0 mph 60% 0.00 in 181 W/m2
08:48 68.2 °F 52.9 °F 30.02 in WSW 6.0 mph 8.0 mph 58% 0.00 in 207 W/m2
08:54 68.6 °F 53.2 °F 30.02 in SW 7.0 mph 10.0 mph 58% 0.00 in 125 W/m2
09:00 68.8 °F 52.9 °F 30.03 in SSE 8.0 mph 8.0 mph 57% 0.00 in 88 W/m2
09:06 68.6 °F 53.2 °F 30.02 in South 8.0 mph 10.0 mph 58% 0.00 in 83 W/m2
09:12 68.2 °F 53.3 °F 30.02 in SSW 7.0 mph 7.0 mph 59% 0.00 in 148 W/m2
09:18 68.2 °F 53.3 °F 30.02 in SW 6.0 mph 7.0 mph 59% 0.00 in 160 W/m2
09:24 68.5 °F 53.1 °F 30.02 in West 6.0 mph 7.0 mph 58% 0.00 in 125 W/m2
09:30 68.7 °F 53.3 °F 30.02 in SSE 7.0 mph 8.0 mph 58% 0.00 in 162 W/m2
09:36 69.0 °F 53.6 °F 30.02 in WSW 6.0 mph 9.0 mph 58% 0.00 in 197 W/m2
09:42 69.4 °F 53.5 °F 30.02 in SW 6.0 mph 6.0 mph 57% 0.00 in 188 W/m2
09:48 69.7 °F 53.8 °F 30.02 in SW 6.0 mph 7.0 mph 57% 0.00 in 253 W/m2
09:54 70.6 °F 55.1 °F 30.02 in SW 5.0 mph 6.0 mph 58% 0.00 in 454 W/m2
10:00 71.4 °F 54.9 °F 30.02 in South 4.0 mph 10.0 mph 56% 0.00 in 316 W/m2
10:06 71.3 °F 54.3 °F 30.01 in SSW 6.0 mph 10.0 mph 55% 0.00 in 425 W/m2
10:12 72.1 °F 55.5 °F 30.01 in SW 5.0 mph 6.0 mph 56% 0.00 in 563 W/m2
10:18 72.3 °F 54.7 °F 30.01 in West 5.0 mph 10.0 mph 54% 0.00 in 367 W/m2
10:24 72.3 °F 54.7 °F 30.01 in SSW 6.0 mph 6.0 mph 54% 0.00 in 573 W/m2
10:30 73.0 °F 54.9 °F 30.01 in SW 7.0 mph 10.0 mph 53% 0.00 in 721 W/m2
10:36 73.1 °F 54.4 °F 30.02 in WSW 8.0 mph 15.0 mph 52% 0.00 in 700 W/m2
10:42 72.8 °F 55.7 °F 30.02 in SW 8.0 mph 9.0 mph 55% 0.00 in 708 W/m2
10:48 72.2 °F 54.1 °F 30.04 in WNW 7.0 mph 9.0 mph 53% 0.00 in 125 W/m2
10:54 68.4 °F 52.6 °F 30.05 in NW 7.0 mph 9.0 mph 57% 0.00 in 251 W/m2
11:00 66.0 °F 52.6 °F 30.06 in WNW 6.0 mph 7.0 mph 62% 0.00 in 422 W/m2
11:06 64.3 °F 51.9 °F 30.07 in NW 6.0 mph 9.0 mph 64% 0.00 in 237 W/m2
11:12 62.5 °F 51.4 °F 30.08 in NW 6.0 mph 7.0 mph 67% 0.00 in 121 W/m2
11:18 60.8 °F 51.0 °F 30.09 in West 7.0 mph 7.0 mph 70% 0.00 in 53 W/m2
11:24 59.8 °F 50.8 °F 30.10 in WNW 7.0 mph 14.0 mph 72% 0.00 in 37 W/m2
11:30 58.5 °F 51.0 °F 30.11 in WNW 7.0 mph 7.0 mph 76% 0.00 in 46 W/m2
11:36 56.9 °F 49.8 °F 30.11 in WNW 7.0 mph 9.0 mph 77% 0.00 in 49 W/m2
11:42 53.9 °F 47.9 °F 30.13 in NW 8.0 mph 8.0 mph 80% 0.00 in 51 W/m2
11:48 51.2 °F 45.6 °F 30.14 in NNW 8.0 mph 12.0 mph 81% 0.00 in 40 W/m2
11:54 49.4 °F 44.5 °F 30.15 in WNW 7.0 mph 8.0 mph 83% 0.00 in 26 W/m2
12:00 48.3 °F 44.0 °F 30.16 in WNW 6.0 mph 6.0 mph 85% 0.00 in 25 W/m2
12:06 47.6 °F 43.6 °F 30.17 in NW 5.0 mph 6.0 mph 86% 0.00 in 25 W/m2
12:12 46.9 °F 43.2 °F 30.17 in WNW 4.0 mph 8.0 mph 87% 0.00 in 18 W/m2
12:18 46.3 °F 42.6 °F 30.18 in WNW 5.0 mph 10.0 mph 87% 0.00 in 16 W/m2
12:24 45.7 °F 42.3 °F 30.19 in West 4.0 mph 5.0 mph 88% 0.00 in 28 W/m2
12:30 45.2 °F 41.9 °F 30.19 in NW 5.0 mph 6.0 mph 88% 0.00 in 28 W/m2
12:36 44.8 °F 41.5 °F 30.20 in WNW 5.0 mph 7.0 mph 88% 0.00 in 28 W/m2
12:42 44.4 °F 41.4 °F 30.20 in WNW 4.0 mph 5.0 mph 89% 0.00 in 21 W/m2
12:48 44.0 °F 41.0 °F 30.22 in WNW 3.0 mph 5.0 mph 89% 0.00 in 21 W/m2
12:54 43.7 °F 40.7 °F 30.22 in WNW 3.0 mph 5.0 mph 89% 0.00 in 16 W/m2
13:00 43.2 °F 40.2 °F 30.22 in WNW 4.0 mph 7.0 mph 89% 0.00 in 25 W/m2
13:06 42.9 °F 39.9 °F 30.23 in WNW 4.0 mph 7.0 mph 89% 0.00 in 30 W/m2
13:12 42.7 °F 39.7 °F 30.23 in NW 4.0 mph 4.0 mph 89% 0.00 in 28 W/m2
13:18 42.7 °F 40.0 °F 30.24 in WNW 3.0 mph 4.0 mph 90% 0.00 in 39 W/m2
13:24 42.4 °F 39.7 °F 30.24 in NW 3.0 mph 5.0 mph 90% 0.00 in 35 W/m2
13:30 42.3 °F 39.6 °F 30.25 in NW 3.0 mph 3.0 mph 90% 0.00 in 51 W/m2
13:36 42.1 °F 39.4 °F 30.26 in NW 2.0 mph 3.0 mph 90% 0.00 in 40 W/m2
13:42 42.0 °F 39.3 °F 30.26 in NW 2.0 mph 3.0 mph 90% 0.00 in 47 W/m2
13:48 41.9 °F 39.2 °F 30.26 in NW 1.0 mph 3.0 mph 90% 0.00 in 63 W/m2
13:56 41.8 °F 39.1 °F 30.27 in WNW 2.0 mph 3.0 mph 90% 0.00 in 49 W/m2
14:02 41.7 °F 39.0 °F 30.28 in West 2.0 mph 3.0 mph 90% 0.00 in 44 W/m2
14:08 41.5 °F 38.8 °F 30.29 in NW 3.0 mph 3.0 mph 90% 0.00 in 53 W/m2
14:14 41.3 °F 38.6 °F 30.30 in NW 3.0 mph 8.0 mph 90% 0.00 in 58 W/m2
14:20 41.0 °F 38.3 °F 30.30 in West 4.0 mph 4.0 mph 90% 0.00 in 58 W/m2
14:26 40.7 °F 38.0 °F 30.30 in WNW 5.0 mph 6.0 mph 90% 0.00 in 81 W/m2
14:32 40.5 °F 37.8 °F 30.31 in NNW 5.0 mph 5.0 mph 90% 0.00 in 58 W/m2
14:38 40.4 °F 37.7 °F 30.32 in NW 4.0 mph 5.0 mph 90% 0.00 in 40 W/m2
14:44 39.9 °F 36.9 °F 30.32 in NW 4.0 mph 5.0 mph 89% 0.00 in 39 W/m2
14:50 39.6 °F 36.6 °F 30.33 in WNW 3.0 mph 3.0 mph 89% 0.00 in 49 W/m2
14:56 39.6 °F 36.6 °F 30.32 in NW 2.0 mph 3.0 mph 89% 0.00 in 72 W/m2
15:02 39.4 °F 36.4 °F 30.34 in West 4.0 mph 9.0 mph 89% 0.00 in 62 W/m2
15:08 39.2 °F 35.9 °F 30.33 in WNW 5.0 mph 9.0 mph 88% 0.00 in 49 W/m2
15:14 39.3 °F 35.8 °F 30.34 in West 4.0 mph 5.0 mph 87% 0.00 in 83 W/m2
15:20 39.3 °F 35.8 °F 30.34 in West 4.0 mph 5.0 mph 87% 0.00 in 47 W/m2
15:26 39.2 °F 35.4 °F 30.35 in NW 5.0 mph 9.0 mph 86% 0.00 in 46 W/m2
15:32 39.0 °F 34.9 °F 30.36 in NW 6.0 mph 6.0 mph 85% 0.00 in 53 W/m2
15:38 38.9 °F 34.5 °F 30.37 in WNW 5.0 mph 6.0 mph 84% 0.00 in 56 W/m2
15:44 38.9 °F 34.5 °F 30.37 in WNW 4.0 mph 6.0 mph 84% 0.00 in 51 W/m2
15:50 38.5 °F 33.8 °F 30.38 in NNW 6.0 mph 10.0 mph 83% 0.00 in 47 W/m2
15:56 38.1 °F 33.1 °F 30.38 in NW 7.0 mph 10.0 mph 82% 0.00 in 46 W/m2
16:02 37.9 °F 32.9 °F 30.39 in WNW 5.0 mph 7.0 mph 82% 0.00 in 47 W/m2
16:08 37.7 °F 32.7 °F 30.39 in NW 6.0 mph 7.0 mph 82% 0.00 in 35 W/m2
16:14 37.7 °F 32.7 °F 30.39 in NW 5.0 mph 6.0 mph 82% 0.00 in 51 W/m2
16:20 37.7 °F 32.7 °F 30.38 in WNW 4.0 mph 4.0 mph 82% 0.00 in 60 W/m2
16:26 37.7 °F 32.7 °F 30.39 in WNW 4.0 mph 4.0 mph 82% 0.00 in 37 W/m2
16:32 37.6 °F 32.9 °F 30.39 in WNW 4.0 mph 4.0 mph 83% 0.00 in 40 W/m2
16:38 37.5 °F 32.5 °F 30.39 in WNW 4.0 mph 6.0 mph 82% 0.00 in 35 W/m2
16:44 37.6 °F 32.9 °F 30.39 in NW 3.0 mph 6.0 mph 83% 0.00 in 32 W/m2
16:50 37.5 °F 32.8 °F 30.39 in NW 3.0 mph 3.0 mph 83% 0.00 in 35 W/m2
16:56 37.5 °F 32.8 °F 30.40 in WNW 3.0 mph 4.0 mph 83% 0.00 in 26 W/m2
17:02 37.5 °F 32.8 °F 30.41 in West 3.0 mph 3.0 mph 83% 0.00 in 14 W/m2
17:08 37.3 °F 32.6 °F 30.42 in West 4.0 mph 8.0 mph 83% 0.00 in 11 W/m2
17:14 37.2 °F 32.5 °F 30.42 in NW 4.0 mph 6.0 mph 83% 0.00 in 7 W/m2
17:20 37.0 °F 32.3 °F 30.42 in West 4.0 mph 4.0 mph 83% 0.00 in 11 W/m2
17:26 37.0 °F 32.3 °F 30.44 in WNW 4.0 mph 6.0 mph 83% 0.00 in 7 W/m2
17:32 36.9 °F 32.2 °F 30.44 in NW 3.0 mph 5.0 mph 83% 0.00 in 5 W/m2
17:38 36.9 °F 32.2 °F 30.44 in WNW 2.0 mph 5.0 mph 83% 0.00 in 0 W/m2
17:44 36.8 °F 32.1 °F 30.45 in West 2.0 mph 4.0 mph 83% 0.00 in 0 W/m2
17:50 36.8 °F 32.1 °F 30.45 in WNW 3.0 mph 3.0 mph 83% 0.00 in 0 W/m2
17:56 36.8 °F 32.1 °F 30.45 in NW 3.0 mph 3.0 mph 83% 0.00 in 0 W/m2
18:02 36.8 °F 31.8 °F 30.45 in West 2.0 mph 2.0 mph 82% 0.00 in 0 W/m2
18:08 36.8 °F 31.8 °F 30.46 in WNW 2.0 mph 3.0 mph 82% 0.00 in 0 W/m2
18:14 36.8 °F 31.8 °F 30.46 in WNW 2.0 mph 2.0 mph 82% 0.00 in 0 W/m2
18:20 36.7 °F 31.7 °F 30.47 in WNW 1.0 mph 2.0 mph 82% 0.00 in 0 W/m2
18:26 36.7 °F 31.7 °F 30.47 in WSW 2.0 mph 2.0 mph 82% 0.00 in 0 W/m2
18:32 36.6 °F 31.3 °F 30.47 in NW 2.0 mph 5.0 mph 81% 0.00 in 0 W/m2
18:38 36.5 °F 31.2 °F 30.47 in WNW 3.0 mph 5.0 mph 81% 0.00 in 0 W/m2
18:44 36.5 °F 30.9 °F 30.48 in WNW 3.0 mph 3.0 mph 80% 0.00 in 0 W/m2
18:50 36.4 °F 30.8 °F 30.48 in WNW 3.0 mph 4.0 mph 80% 0.00 in 0 W/m2
18:56 36.3 °F 30.7 °F 30.49 in West 3.0 mph 4.0 mph 80% 0.00 in 0 W/m2
19:02 36.3 °F 30.7 °F 30.49 in WNW 3.0 mph 3.0 mph 80% 0.00 in 0 W/m2
19:08 36.2 °F 30.9 °F 30.49 in WNW 2.0 mph 3.0 mph 81% 0.00 in 0 W/m2
19:14 36.2 °F 30.6 °F 30.50 in West 3.0 mph 5.0 mph 80% 0.00 in 0 W/m2
19:20 36.0 °F 30.4 °F 30.49 in WNW 3.0 mph 3.0 mph 80% 0.00 in 0 W/m2
19:26 36.0 °F 30.7 °F 30.49 in WNW 2.0 mph 4.0 mph 81% 0.00 in 0 W/m2
19:32 35.9 °F 30.3 °F 30.49 in West 3.0 mph 3.0 mph 80% 0.00 in 0 W/m2
19:38 35.9 °F 30.3 °F 30.50 in WNW 2.0 mph 5.0 mph 80% 0.00 in 0 W/m2
19:44 35.8 °F 30.5 °F 30.50 in WNW 1.0 mph 3.0 mph 81% 0.00 in 0 W/m2
19:50 35.8 °F 30.5 °F 30.51 in WNW 1.0 mph 1.0 mph 81% 0.00 in 0 W/m2
19:56 35.9 °F 30.6 °F 30.51 in WNW 1.0 mph 1.0 mph 81% 0.00 in 0 W/m2
20:02 35.9 °F 30.6 °F 30.52 in Calm   2.0 mph 81% 0.00 in 0 W/m2
20:08 35.9 °F 30.6 °F 30.52 in WNW 1.0 mph 2.0 mph 81% 0.00 in 0 W/m2
20:14 35.8 °F 30.5 °F 30.52 in WNW 1.0 mph 3.0 mph 81% 0.00 in 0 W/m2
20:20 35.8 °F 30.5 °F 30.52 in West 2.0 mph 2.0 mph 81% 0.00 in 0 W/m2
20:26 35.7 °F 30.4 °F 30.52 in NW 2.0 mph 3.0 mph 81% 0.00 in 0 W/m2
20:32 35.7 °F 30.1 °F 30.52 in WNW 2.0 mph 2.0 mph 80% 0.00 in 0 W/m2
20:38 35.7 °F 30.1 °F 30.52 in WNW 1.0 mph 2.0 mph 80% 0.00 in 0 W/m2
20:44 35.6 °F 30.0 °F 30.52 in NW 1.0 mph 1.0 mph 80% 0.00 in 0 W/m2
20:50 35.5 °F 29.9 °F 30.52 in NW 1.0 mph 1.0 mph 80% 0.00 in 0 W/m2
20:56 35.5 °F 29.9 °F 30.52 in NW 1.0 mph 3.0 mph 80% 0.00 in 0 W/m2
21:02 35.5 °F 29.9 °F 30.52 in NW 1.0 mph 1.0 mph 80% 0.00 in 0 W/m2
21:08 35.4 °F 29.8 °F 30.53 in NW 1.0 mph 4.0 mph 80% 0.00 in 0 W/m2
21:14 35.3 °F 29.7 °F 30.53 in WNW 2.0 mph 3.0 mph 80% 0.00 in 0 W/m2
21:20 35.3 °F 29.7 °F 30.53 in WNW 2.0 mph 2.0 mph 80% 0.00 in 0 W/m2
21:26 35.2 °F 29.6 °F 30.54 in WNW 2.0 mph 3.0 mph 80% 0.00 in 0 W/m2
21:32 35.2 °F 29.3 °F 30.55 in West 2.0 mph 3.0 mph 79% 0.00 in 0 W/m2
21:38 35.1 °F 29.6 °F 30.54 in NNW 1.0 mph 3.0 mph 80% 0.00 in 0 W/m2
21:44 35.1 °F 29.2 °F 30.54 in NW 2.0 mph 4.0 mph 79% 0.00 in 0 W/m2
21:50 35.0 °F 29.1 °F 30.54 in WNW 2.0 mph 4.0 mph 79% 0.00 in 0 W/m2
21:56 35.0 °F 29.1 °F 30.55 in NW 3.0 mph 4.0 mph 79% 0.00 in 0 W/m2
22:02 35.0 °F 29.1 °F 30.55 in NW 2.0 mph 4.0 mph 79% 0.00 in 0 W/m2
22:08 35.0 °F 29.1 °F 30.55 in NW 2.0 mph 4.0 mph 79% 0.00 in 0 W/m2
22:14 35.0 °F 29.1 °F 30.55 in NW 2.0 mph 3.0 mph 79% 0.00 in 0 W/m2
22:20 34.9 °F 29.0 °F 30.55 in West 2.0 mph 3.0 mph 79% 0.00 in 0 W/m2
22:26 34.9 °F 29.0 °F 30.55 in WNW 2.0 mph 3.0 mph 79% 0.00 in 0 W/m2
22:32 34.8 °F 29.0 °F 30.55 in WNW 2.0 mph 2.0 mph 79% 0.00 in 0 W/m2
22:38 34.7 °F 28.9 °F 30.55 in WNW 1.0 mph 2.0 mph 79% 0.00 in 0 W/m2
22:44 34.6 °F 28.8 °F 30.55 in WNW 1.0 mph 2.0 mph 79% 0.00 in 0 W/m2
22:50 34.5 °F 28.7 °F 30.55 in WNW 1.0 mph 1.0 mph 79% 0.00 in 0 W/m2
22:56 34.4 °F 28.9 °F 30.55 in Calm   2.0 mph 80% 0.00 in 0 W/m2
23:02 34.3 °F 28.8 °F 30.56 in WNW 1.0 mph 2.0 mph 80% 0.00 in 0 W/m2
23:08 34.2 °F 28.7 °F 30.56 in WNW 1.0 mph 2.0 mph 80% 0.00 in 0 W/m2
23:14 34.1 °F 28.6 °F 30.56 in WNW 1.0 mph 2.0 mph 80% 0.00 in 0 W/m2
23:20 34.0 °F 28.5 °F 30.56 in WNW 1.0 mph 2.0 mph 80% 0.00 in 0 W/m2
23:26 33.8 °F 28.6 °F 30.56 in WNW 1.0 mph 2.0 mph 81% 0.00 in 0 W/m2
23:32 33.7 °F 28.5 °F 30.56 in WNW 1.0 mph 2.0 mph 81% 0.00 in 0 W/m2
23:38 33.6 °F 28.4 °F 30.56 in WNW 1.0 mph 2.0 mph 81% 0.00 in 0 W/m2
23:44 33.5 °F 28.3 °F 30.56 in WNW 1.0 mph 1.0 mph 81% 0.00 in 0 W/m2
23:50 33.4 °F 28.2 °F 30.57 in WNW 1.0 mph 1.0 mph 81% 0.00 in 0 W/m2
23:56 33.4 °F 28.2 °F 30.57 in WNW 1.0 mph 1.0 mph 81% 0.00 in 0 W/m2
Country Meadow, Clay, NY, USA
Compliments of Weather Underground - 2 mb